"read_dt","SO2 (ppb)","flags","PMT voltage (V)","lamp voltage (V)","lamp intensity (Hz)","internal temp (C)","react chamber temp (C)","sample flow (l/min)","pres (mmHg)","SO2 bkg (ppb)","SO2 coefficient"
2017-03-19 00:00:00,1671E-3,5C000400,-0724,0839,12086,028.0,045.5,0.222,747.6,01.17,0.508
2017-03-19 00:01:00,1914E-3,5C000400,-0724,0840,12164,028.0,045.4,0.222,747.5,01.17,0.508
2017-03-19 00:02:00,1862E-3,5C000400,-0724,0839,12057,027.8,045.4,0.222,747.6,01.17,0.508
2017-03-19 00:03:00,1685E-3,5C000400,-0724,0839,11944,027.8,045.4,0.222,747.4,01.17,0.508
2017-03-19 00:04:00,1826E-3,5C000400,-0724,0839,12123,027.8,045.4,0.222,747.8,01.17,0.508
2017-03-19 00:05:00,1777E-3,5C000400,-0724,0840,12007,027.7,045.4,0.222,747.5,01.17,0.508
2017-03-19 00:06:00,1649E-3,5C000400,-0724,0839,12149,027.6,045.4,0.222,747.7,01.17,0.508
2017-03-19 00:07:00,1721E-3,5C000400,-0724,0839,11918,027.6,045.4,0.222,747.5,01.17,0.508
2017-03-19 00:08:00,1799E-3,5C000400,-0724,0838,12001,027.6,045.4,0.222,747.8,01.17,0.508
2017-03-19 00:09:00,1756E-3,5C000400,-0724,0839,12056,027.6,045.4,0.222,747.5,01.17,0.508
2017-03-19 00:10:00,1796E-3,5C000400,-0724,0839,12110,027.7,045.5,0.222,747.5,01.17,0.508
2017-03-19 00:11:00,1646E-3,5C000400,-0724,0839,12032,027.8,045.4,0.222,747.4,01.17,0.508
2017-03-19 00:12:00,1663E-3,5C000400,-0724,0838,12053,027.9,045.5,0.222,747.5,01.17,0.508
2017-03-19 00:13:00,1816E-3,5C000400,-0724,0839,12128,027.9,045.5,0.223,747.4,01.17,0.508
2017-03-19 00:14:00,1789E-3,5C000400,-0724,0839,11975,028.0,045.5,0.222,747.3,01.17,0.508
2017-03-19 00:15:00,1750E-3,5C000400,-0724,0839,12053,028.0,045.5,0.221,747.6,01.17,0.508
2017-03-19 00:16:00,1788E-3,5C000400,-0724,0839,12024,028.0,045.5,0.222,747.8,01.17,0.508
2017-03-19 00:17:00,1782E-3,5C000400,-0724,0838,11894,027.9,045.4,0.222,747.4,01.17,0.508
2017-03-19 00:18:00,1740E-3,5C000400,-0724,0839,12085,027.8,045.4,0.222,747.6,01.17,0.508
2017-03-19 00:19:00,1856E-3,5C000400,-0724,0839,12122,027.8,045.4,0.222,747.4,01.17,0.508
2017-03-19 00:20:00,1981E-3,5C000400,-0724,0839,12073,027.7,045.5,0.222,747.8,01.17,0.508
2017-03-19 00:21:00,1667E-3,5C000400,-0724,0838,12080,027.7,045.4,0.221,747.8,01.17,0.508
2017-03-19 00:22:00,1824E-3,5C000400,-0724,0838,11992,027.6,045.4,0.222,747.9,01.17,0.508
2017-03-19 00:23:00,1770E-3,5C000400,-0724,0839,11929,027.5,045.4,0.222,747.7,01.17,0.508
2017-03-19 00:24:00,1746E-3,5C000400,-0724,0839,12052,027.5,045.4,0.222,747.9,01.17,0.508
2017-03-19 00:25:00,1612E-3,5C000400,-0724,0838,12037,027.6,045.4,0.222,748.1,01.17,0.508
2017-03-19 00:26:00,1804E-3,5C000400,-0724,0838,12083,027.6,045.5,0.222,748.0,01.17,0.508
2017-03-19 00:27:00,1750E-3,5C000400,-0724,0839,11841,027.7,045.4,0.222,748.2,01.17,0.508
2017-03-19 00:28:00,1792E-3,5C000400,-0724,0839,12069,027.7,045.4,0.222,748.2,01.17,0.508
2017-03-19 00:29:00,1865E-3,5C000400,-0724,0838,12028,027.8,045.5,0.222,748.2,01.17,0.508
2017-03-19 00:30:00,1745E-3,5C000400,-0724,0837,12080,027.8,045.4,0.222,748.2,01.17,0.508
2017-03-19 00:31:00,1967E-3,5C000400,-0724,0838,11984,027.9,045.4,0.222,748.4,01.17,0.508
2017-03-19 00:32:00,1635E-3,5C000400,-0724,0839,12123,027.8,045.4,0.222,747.8,01.17,0.508
2017-03-19 00:33:00,1802E-3,5C000400,-0724,0838,11962,027.8,045.4,0.222,748.1,01.17,0.508
2017-03-19 00:34:00,1872E-3,5C000400,-0724,0838,12155,027.7,045.4,0.222,748.4,01.17,0.508
2017-03-19 00:35:00,1836E-3,5C000400,-0724,0839,11984,027.6,045.4,0.222,748.4,01.17,0.508
2017-03-19 00:36:00,1678E-3,5C000400,-0724,0837,12185,027.6,045.4,0.222,748.1,01.17,0.508
2017-03-19 00:37:00,1767E-3,5C000400,-0724,0839,12049,027.5,045.4,0.222,748.2,01.17,0.508
2017-03-19 00:38:00,1726E-3,5C000400,-0724,0839,12156,027.5,045.4,0.222,748.4,01.17,0.508
2017-03-19 00:39:00,1821E-3,5C000400,-0724,0839,12056,027.5,045.4,0.222,748.6,01.17,0.508
2017-03-19 00:40:00,1823E-3,5C000400,-0724,0839,11905,027.5,045.4,0.222,748.6,01.17,0.508
2017-03-19 00:41:00,1741E-3,5C000400,-0724,0838,11989,027.5,045.5,0.222,748.7,01.17,0.508
2017-03-19 00:42:00,1657E-3,5C000400,-0724,0838,12041,027.4,045.4,0.222,748.8,01.17,0.508
2017-03-19 00:43:00,1792E-3,5C000400,-0724,0839,12072,027.4,045.4,0.223,749.1,01.17,0.508
2017-03-19 00:44:00,1832E-3,5C000400,-0724,0839,11963,027.4,045.4,0.223,748.7,01.17,0.508
2017-03-19 00:45:00,1725E-3,5C000400,-0724,0838,12075,027.5,045.4,0.222,748.8,01.17,0.508
2017-03-19 00:46:00,1850E-3,5C000400,-0724,0838,11989,027.6,045.4,0.222,748.8,01.17,0.508
2017-03-19 00:47:00,1840E-3,5C000400,-0724,0839,12036,027.6,045.5,0.223,749.2,01.17,0.508
2017-03-19 00:48:00,1866E-3,5C000400,-0724,0839,12097,027.7,045.4,0.222,749.2,01.17,0.508
2017-03-19 00:49:00,1780E-3,5C000400,-0724,0838,12088,027.8,045.4,0.222,749.3,01.17,0.508
2017-03-19 00:50:00,1880E-3,5C000400,-0724,0839,12045,027.8,045.4,0.222,749.3,01.17,0.508
2017-03-19 00:51:00,1809E-3,5C000400,-0724,0839,11988,027.9,045.5,0.222,749.3,01.17,0.508
2017-03-19 00:52:00,1765E-3,5C000400,-0724,0838,12080,027.9,045.5,0.222,749.3,01.17,0.508
2017-03-19 00:53:00,1760E-3,5C000400,-0724,0839,11996,027.8,045.5,0.222,749.5,01.17,0.508
2017-03-19 00:54:00,1688E-3,5C000400,-0724,0838,12077,027.8,045.4,0.222,749.4,01.17,0.508
2017-03-19 00:55:00,1731E-3,5C000400,-0724,0839,12049,027.7,045.4,0.222,749.5,01.17,0.508
2017-03-19 00:56:00,1732E-3,5C000400,-0724,0839,11931,027.7,045.4,0.222,749.5,01.17,0.508
2017-03-19 00:57:00,1834E-3,5C000400,-0724,0839,12062,027.6,045.5,0.222,749.5,01.17,0.508
2017-03-19 00:58:00,1851E-3,5C000400,-0724,0838,11989,027.5,045.4,0.222,749.4,01.17,0.508
2017-03-19 00:59:00,1762E-3,5C000400,-0724,0839,12070,027.5,045.4,0.222,749.6,01.17,0.508
2017-03-19 01:00:00,1747E-3,5C000400,-0724,0839,12001,027.5,045.4,0.222,749.5,01.17,0.508
2017-03-19 01:01:00,1733E-3,5C000400,-0724,0839,11969,027.5,045.4,0.222,749.6,01.17,0.508
2017-03-19 01:02:00,1704E-3,5C000400,-0724,0838,12195,027.5,045.4,0.222,749.5,01.17,0.508
2017-03-19 01:03:00,1908E-3,5C000400,-0724,0838,11983,027.4,045.4,0.222,749.7,01.17,0.508
2017-03-19 01:04:00,1745E-3,5C000400,-0724,0839,12031,027.4,045.4,0.223,749.6,01.17,0.508
2017-03-19 01:05:00,1796E-3,5C000400,-0724,0838,12116,027.5,045.4,0.222,749.7,01.17,0.508
2017-03-19 01:06:00,1940E-3,5C000400,-0724,0838,12030,027.5,045.4,0.222,749.5,01.17,0.508
2017-03-19 01:07:00,1786E-3,5C000400,-0724,0839,12231,027.7,045.5,0.222,749.6,01.17,0.508
2017-03-19 01:08:00,1663E-3,5C000400,-0724,0839,11988,027.7,045.4,0.223,749.8,01.17,0.508
2017-03-19 01:09:00,1833E-3,5C000400,-0724,0839,12118,027.8,045.4,0.222,749.6,01.17,0.508
2017-03-19 01:10:00,1947E-3,5C000400,-0724,0839,12110,027.8,045.4,0.222,749.8,01.17,0.508
2017-03-19 01:11:00,1742E-3,5C000400,-0724,0839,12005,027.7,045.4,0.222,749.8,01.17,0.508
2017-03-19 01:12:00,1719E-3,5C000400,-0724,0839,12100,027.6,045.4,0.222,749.8,01.17,0.508
2017-03-19 01:13:00,1657E-3,5C000400,-0724,0838,12016,027.6,045.4,0.222,749.5,01.17,0.508
2017-03-19 01:14:00,1883E-3,5C000400,-0724,0839,12147,027.5,045.4,0.222,749.6,01.17,0.508
2017-03-19 01:15:00,1813E-3,5C000400,-0724,0838,12108,027.5,045.4,0.222,749.6,01.17,0.508
2017-03-19 01:16:00,1717E-3,5C000400,-0724,0838,12021,027.5,045.4,0.222,749.5,01.17,0.508
2017-03-19 01:17:00,1708E-3,5C000400,-0724,0838,12052,027.5,045.4,0.222,749.6,01.17,0.508
2017-03-19 01:18:00,1758E-3,5C000400,-0724,0838,12058,027.4,045.5,0.222,749.8,01.17,0.508
2017-03-19 01:19:00,1747E-3,5C000400,-0724,0838,12136,027.4,045.4,0.222,749.6,01.17,0.508
2017-03-19 01:20:00,1762E-3,5C000400,-0724,0838,12117,027.4,045.4,0.223,749.5,01.17,0.508
2017-03-19 01:21:00,1802E-3,5C000400,-0724,0839,12208,027.4,045.4,0.223,749.7,01.17,0.508
2017-03-19 01:22:00,1700E-3,5C000400,-0724,0838,12098,027.4,045.4,0.223,749.8,01.17,0.508
2017-03-19 01:23:00,1741E-3,5C000400,-0724,0839,12140,027.3,045.4,0.222,749.4,01.17,0.508
2017-03-19 01:24:00,1876E-3,5C000400,-0724,0839,12037,027.3,045.4,0.223,749.5,01.17,0.508
2017-03-19 01:25:00,1850E-3,5C000400,-0724,0838,12039,027.3,045.5,0.223,749.6,01.17,0.508
2017-03-19 01:26:00,1761E-3,5C000400,-0724,0838,12105,027.3,045.4,0.223,749.7,01.17,0.508
2017-03-19 01:27:00,1641E-3,5C000400,-0724,0839,12058,027.3,045.4,0.223,749.7,01.17,0.508
2017-03-19 01:28:00,1850E-3,5C000400,-0724,0839,12074,027.3,045.4,0.222,749.5,01.17,0.508
2017-03-19 01:29:00,1760E-3,5C000400,-0724,0838,11952,027.3,045.4,0.223,749.6,01.17,0.508
2017-03-19 01:30:00,1876E-3,5C000400,-0724,0839,12096,027.2,045.4,0.223,749.4,01.17,0.508
2017-03-19 01:31:00,1689E-3,5C000400,-0724,0838,11899,027.2,045.4,0.223,749.6,01.17,0.508
2017-03-19 01:32:00,1662E-3,5C000400,-0724,0838,12010,027.2,045.4,0.223,749.5,01.17,0.508
2017-03-19 01:33:00,1800E-3,5C000400,-0724,0838,12025,027.2,045.4,0.223,749.6,01.17,0.508
2017-03-19 01:34:00,1871E-3,5C000400,-0724,0838,11978,027.2,045.4,0.223,749.6,01.17,0.508
2017-03-19 01:35:00,1868E-3,5C000400,-0724,0839,12119,027.2,045.4,0.223,749.5,01.17,0.508
2017-03-19 01:36:00,1702E-3,5C000400,-0724,0839,12014,027.2,045.4,0.223,749.2,01.17,0.508
2017-03-19 01:37:00,1872E-3,5C000400,-0724,0838,12026,027.2,045.4,0.223,749.3,01.17,0.508
2017-03-19 01:38:00,1622E-3,5C000400,-0724,0838,11939,027.1,045.4,0.223,749.0,01.17,0.508
2017-03-19 01:39:00,1631E-3,5C000400,-0724,0838,11985,027.2,045.4,0.223,749.2,01.17,0.508
2017-03-19 01:40:00,1614E-3,5C000400,-0724,0838,12144,027.2,045.4,0.223,749.2,01.17,0.508
2017-03-19 01:41:00,1860E-3,5C000400,-0724,0838,12101,027.1,045.4,0.223,749.0,01.17,0.508
2017-03-19 01:42:00,1690E-3,5C000400,-0724,0838,12074,027.1,045.4,0.223,749.1,01.17,0.508
2017-03-19 01:43:00,1788E-3,5C000400,-0724,0838,11927,027.2,045.4,0.223,749.2,01.17,0.508
2017-03-19 01:44:00,1847E-3,5C000400,-0724,0838,11961,027.1,045.4,0.223,749.2,01.17,0.508
2017-03-19 01:45:00,1773E-3,5C000400,-0724,0838,12174,027.1,045.4,0.223,749.2,01.17,0.508
2017-03-19 01:46:00,1762E-3,5C000400,-0724,0839,12042,027.2,045.4,0.223,749.1,01.17,0.508
2017-03-19 01:47:00,1863E-3,5C000400,-0724,0838,12012,027.2,045.4,0.223,749.1,01.17,0.508
2017-03-19 01:48:00,1710E-3,5C000400,-0724,0838,12178,027.2,045.4,0.223,749.2,01.17,0.508
2017-03-19 01:49:00,1793E-3,5C000400,-0724,0838,12009,027.2,045.4,0.223,749.0,01.17,0.508
2017-03-19 01:50:00,1753E-3,5C000400,-0724,0839,11951,027.1,045.4,0.223,749.1,01.17,0.508
2017-03-19 01:51:00,1772E-3,5C000400,-0724,0838,12123,027.1,045.4,0.223,749.0,01.17,0.508
2017-03-19 01:52:00,1809E-3,5C000400,-0724,0839,12201,027.1,045.4,0.223,749.1,01.17,0.508
2017-03-19 01:53:00,1824E-3,5C000400,-0724,0839,12205,027.1,045.4,0.223,749.3,01.17,0.508
2017-03-19 01:54:00,1664E-3,5C000400,-0724,0839,11933,027.1,045.4,0.223,749.3,01.17,0.508
2017-03-19 01:55:00,1785E-3,5C000400,-0724,0838,12055,027.1,045.4,0.223,749.3,01.17,0.508
2017-03-19 01:56:00,1735E-3,5C000400,-0724,0838,12022,027.1,045.4,0.223,749.2,01.17,0.508
2017-03-19 01:57:00,1880E-3,5C000400,-0724,0839,11950,027.1,045.4,0.223,749.3,01.17,0.508
2017-03-19 01:58:00,1815E-3,5C000400,-0724,0838,12055,027.1,045.4,0.223,749.4,01.17,0.508
2017-03-19 01:59:00,1641E-3,5C000400,-0724,0838,12134,027.1,045.4,0.223,749.5,01.17,0.508
2017-03-19 02:00:00,1758E-3,5C000400,-0724,0838,11916,027.1,045.4,0.223,749.5,01.17,0.508
2017-03-19 02:01:00,1680E-3,5C000400,-0724,0838,12112,027.1,045.4,0.224,749.5,01.17,0.508
2017-03-19 02:02:00,1818E-3,5C000400,-0724,0838,12067,027.1,045.4,0.223,749.5,01.17,0.508
2017-03-19 02:03:00,1792E-3,5C000400,-0724,0838,11916,027.1,045.4,0.223,749.6,01.17,0.508
2017-03-19 02:04:00,1764E-3,5C000400,-0724,0839,12074,027.1,045.4,0.223,749.6,01.17,0.508
2017-03-19 02:05:00,1713E-3,5C000400,-0724,0838,12003,027.1,045.4,0.223,749.7,01.17,0.508
2017-03-19 02:06:00,1731E-3,5C000400,-0724,0839,12102,027.1,045.4,0.224,749.5,01.17,0.508
2017-03-19 02:07:00,1726E-3,5C000400,-0724,0838,11933,027.1,045.4,0.223,749.6,01.17,0.508
2017-03-19 02:08:00,1769E-3,5C000400,-0724,0839,12117,027.1,045.4,0.223,749.5,01.17,0.508
2017-03-19 02:09:00,1861E-3,5C000400,-0724,0838,11962,027.1,045.4,0.223,749.5,01.17,0.508
2017-03-19 02:10:00,1843E-3,5C000400,-0724,0838,12083,027.0,045.4,0.223,749.4,01.17,0.508
2017-03-19 02:11:00,1830E-3,5C000400,-0724,0838,12056,027.0,045.4,0.223,749.1,01.17,0.508
2017-03-19 02:12:00,1729E-3,5C000400,-0724,0838,12128,027.1,045.4,0.223,749.5,01.17,0.508
2017-03-19 02:13:00,1728E-3,5C000400,-0724,0838,12064,027.1,045.4,0.223,749.4,01.17,0.508
2017-03-19 02:14:00,1749E-3,5C000400,-0724,0839,11942,027.1,045.4,0.223,749.3,01.17,0.508
2017-03-19 02:15:00,1894E-3,5C000400,-0724,0838,12041,027.1,045.4,0.223,749.6,01.17,0.508
2017-03-19 02:16:00,1846E-3,5C000400,-0724,0838,11967,027.1,045.4,0.223,749.4,01.17,0.508
2017-03-19 02:17:00,1693E-3,5C000400,-0724,0839,12058,027.1,045.4,0.223,749.5,01.17,0.508
2017-03-19 02:18:00,1672E-3,5C000400,-0724,0838,12027,027.1,045.4,0.223,749.7,01.17,0.508
2017-03-19 02:19:00,1784E-3,5C000400,-0724,0838,12102,027.1,045.4,0.223,749.6,01.17,0.508
2017-03-19 02:20:00,1809E-3,5C000400,-0724,0839,11978,027.2,045.4,0.223,749.5,01.17,0.508
2017-03-19 02:21:00,1770E-3,5C000400,-0724,0839,12102,027.2,045.4,0.223,749.6,01.17,0.508
2017-03-19 02:22:00,1687E-3,5C000400,-0724,0838,12016,027.3,045.4,0.223,749.6,01.17,0.508
2017-03-19 02:23:00,1799E-3,5C000400,-0724,0839,12061,027.4,045.4,0.223,749.5,01.17,0.508
2017-03-19 02:24:00,1883E-3,5C000400,-0724,0839,12011,027.5,045.4,0.223,749.4,01.17,0.508
2017-03-19 02:25:00,1818E-3,5C000400,-0724,0838,12135,027.6,045.4,0.223,749.6,01.17,0.508
2017-03-19 02:26:00,1756E-3,5C000400,-0724,0839,12146,027.6,045.4,0.223,749.6,01.17,0.508
2017-03-19 02:27:00,1624E-3,5C000400,-0724,0839,11868,027.6,045.4,0.223,749.4,01.17,0.508
2017-03-19 02:28:00,1847E-3,5C000400,-0724,0839,12170,027.5,045.4,0.222,749.5,01.17,0.508
2017-03-19 02:29:00,1782E-3,5C000400,-0724,0838,11967,027.5,045.4,0.223,749.5,01.17,0.508
2017-03-19 02:30:00,1944E-3,5C000400,-0724,0838,12110,027.4,045.4,0.223,749.6,01.17,0.508
2017-03-19 02:31:00,1722E-3,5C000400,-0724,0837,11914,027.4,045.4,0.223,749.5,01.17,0.508
2017-03-19 02:32:00,1771E-3,5C000400,-0724,0838,12153,027.4,045.5,0.223,749.7,01.17,0.508
2017-03-19 02:33:00,1696E-3,5C000400,-0724,0839,12017,027.4,045.4,0.223,749.4,01.17,0.508
2017-03-19 02:34:00,1772E-3,5C000400,-0724,0839,12113,027.4,045.5,0.222,749.7,01.17,0.508
2017-03-19 02:35:00,1779E-3,5C000400,-0724,0838,12110,027.3,045.4,0.223,749.4,01.17,0.508
2017-03-19 02:36:00,1741E-3,5C000400,-0724,0838,12056,027.3,045.4,0.223,749.6,01.17,0.508
2017-03-19 02:37:00,1851E-3,5C000400,-0724,0838,12064,027.3,045.5,0.223,749.7,01.17,0.508
2017-03-19 02:38:00,1742E-3,5C000400,-0724,0839,12177,027.3,045.4,0.223,749.6,01.17,0.508
2017-03-19 02:39:00,1763E-3,5C000400,-0724,0839,12101,027.2,045.4,0.223,749.8,01.17,0.508
2017-03-19 02:40:00,1660E-3,5C000400,-0724,0837,11987,027.2,045.4,0.223,749.9,01.17,0.508
2017-03-19 02:41:00,1750E-3,5C000400,-0724,0838,11907,027.2,045.4,0.223,749.9,01.17,0.508
2017-03-19 02:42:00,1696E-3,5C000400,-0724,0838,12080,027.1,045.4,0.223,749.9,01.17,0.508
2017-03-19 02:43:00,1863E-3,5C000400,-0724,0838,11927,027.2,045.4,0.223,749.9,01.17,0.508
2017-03-19 02:44:00,1765E-3,5C000400,-0724,0838,11997,027.2,045.5,0.223,750.0,01.17,0.508
2017-03-19 02:45:00,1819E-3,5C000400,-0724,0839,12164,027.2,045.4,0.223,750.2,01.17,0.508
2017-03-19 02:46:00,1879E-3,5C000400,-0724,0839,12030,027.2,045.4,0.223,749.9,01.17,0.508
2017-03-19 02:47:00,1697E-3,5C000400,-0724,0838,12057,027.1,045.5,0.223,750.0,01.17,0.508
2017-03-19 02:48:00,1808E-3,5C000400,-0724,0838,11989,027.1,045.4,0.223,749.7,01.17,0.508
2017-03-19 02:49:00,1716E-3,5C000400,-0724,0839,11979,027.2,045.4,0.223,750.1,01.17,0.508
2017-03-19 02:50:00,1696E-3,5C000400,-0724,0839,12089,027.2,045.4,0.223,749.9,01.17,0.508
2017-03-19 02:51:00,1746E-3,5C000400,-0724,0838,12090,027.3,045.4,0.223,749.8,01.17,0.508
2017-03-19 02:52:00,1739E-3,5C000400,-0724,0839,12082,027.4,045.4,0.223,749.8,01.17,0.508
2017-03-19 02:53:00,1732E-3,5C000400,-0724,0838,11976,027.5,045.4,0.223,749.6,01.17,0.508
2017-03-19 02:54:00,1729E-3,5C000400,-0724,0839,12190,027.5,045.4,0.223,750.0,01.17,0.508
2017-03-19 02:55:00,1704E-3,5C000400,-0724,0838,12051,027.5,045.4,0.223,750.1,01.17,0.508
2017-03-19 02:56:00,1781E-3,5C000400,-0724,0838,12094,027.5,045.4,0.223,750.1,01.17,0.508
2017-03-19 02:57:00,1759E-3,5C000400,-0724,0838,12029,027.4,045.4,0.222,750.0,01.17,0.508
2017-03-19 02:58:00,1789E-3,5C000400,-0724,0838,12112,027.4,045.4,0.223,750.0,01.17,0.508
2017-03-19 02:59:00,1726E-3,5C000400,-0724,0839,12090,027.3,045.4,0.223,749.9,01.17,0.508
2017-03-19 03:00:00,1715E-3,5C000400,-0724,0838,12076,027.3,045.4,0.223,749.9,01.17,0.508
2017-03-19 03:01:00,1777E-3,5C000400,-0724,0838,12137,027.3,045.4,0.223,750.0,01.17,0.508
2017-03-19 03:02:00,1680E-3,5C000400,-0724,0838,12042,027.3,045.4,0.223,750.0,01.17,0.508
2017-03-19 03:03:00,1720E-3,5C000400,-0724,0839,12077,027.3,045.4,0.223,749.9,01.17,0.508
2017-03-19 03:04:00,1758E-3,5C000400,-0724,0838,12144,027.3,045.4,0.223,749.9,01.17,0.508
2017-03-19 03:05:00,1801E-3,5C000400,-0724,0838,12008,027.2,045.4,0.223,749.9,01.17,0.508
2017-03-19 03:06:00,1784E-3,5C000400,-0724,0838,11996,027.3,045.4,0.223,749.9,01.17,0.508
2017-03-19 03:07:00,1754E-3,5C000400,-0724,0838,12023,027.3,045.4,0.223,750.0,01.17,0.508
2017-03-19 03:08:00,1762E-3,5C000400,-0724,0839,12080,027.2,045.4,0.223,750.2,01.17,0.508
2017-03-19 03:09:00,1694E-3,5C000400,-0724,0839,12061,027.2,045.4,0.223,750.1,01.17,0.508
2017-03-19 03:10:00,1675E-3,5C000400,-0724,0839,12048,027.2,045.4,0.223,750.2,01.17,0.508
2017-03-19 03:11:00,1726E-3,5C000400,-0724,0838,11994,027.2,045.4,0.223,750.2,01.17,0.508
2017-03-19 03:12:00,1722E-3,5C000400,-0724,0838,11809,027.1,045.4,0.223,750.0,01.17,0.508
2017-03-19 03:13:00,1685E-3,5C000400,-0724,0838,12103,027.2,045.4,0.223,749.9,01.17,0.508
2017-03-19 03:14:00,1760E-3,5C000400,-0724,0839,11953,027.2,045.4,0.223,749.9,01.17,0.508
2017-03-19 03:15:00,1699E-3,5C000400,-0724,0838,12084,027.2,045.4,0.223,750.0,01.17,0.508
2017-03-19 03:16:00,1663E-3,5C000400,-0724,0838,12077,027.2,045.4,0.223,750.1,01.17,0.508
2017-03-19 03:17:00,1796E-3,5C000400,-0724,0838,12071,027.2,045.4,0.223,750.2,01.17,0.508
2017-03-19 03:18:00,1794E-3,5C000400,-0724,0838,12051,027.2,045.4,0.223,750.2,01.17,0.508
2017-03-19 03:19:00,1682E-3,5C000400,-0724,0839,12060,027.1,045.4,0.223,750.2,01.17,0.508
2017-03-19 03:20:00,1700E-3,5C000400,-0724,0839,12092,027.1,045.4,0.223,750.0,01.17,0.508
2017-03-19 03:21:00,1830E-3,5C000400,-0724,0838,12090,027.2,045.4,0.223,750.0,01.17,0.508
2017-03-19 03:22:00,1867E-3,5C000400,-0724,0838,12053,027.2,045.4,0.223,750.0,01.17,0.508
2017-03-19 03:23:00,1806E-3,5C000400,-0724,0838,12060,027.3,045.4,0.223,750.1,01.17,0.508
2017-03-19 03:24:00,1727E-3,5C000400,-0724,0838,11959,027.4,045.4,0.223,750.0,01.17,0.508
2017-03-19 03:25:00,1815E-3,5C000400,-0724,0839,11896,027.5,045.4,0.223,750.1,01.17,0.508
2017-03-19 03:26:00,1755E-3,5C000400,-0724,0838,12057,027.5,045.5,0.223,750.1,01.17,0.508
2017-03-19 03:27:00,1760E-3,5C000400,-0724,0838,11996,027.5,045.5,0.223,750.2,01.17,0.508
2017-03-19 03:28:00,1841E-3,5C000400,-0724,0839,11988,027.5,045.4,0.223,750.1,01.17,0.508
2017-03-19 03:29:00,1700E-3,5C000400,-0724,0839,12139,027.4,045.4,0.223,750.1,01.17,0.508
2017-03-19 03:30:00,1770E-3,5C000400,-0724,0839,12187,027.4,045.4,0.223,750.1,01.17,0.508
2017-03-19 03:31:00,1756E-3,5C000400,-0724,0838,11922,027.3,045.4,0.223,750.2,01.17,0.508
2017-03-19 03:32:00,1681E-3,5C000400,-0724,0839,12030,027.4,045.4,0.223,750.2,01.17,0.508
2017-03-19 03:33:00,1782E-3,5C000400,-0724,0839,12110,027.3,045.4,0.223,750.2,01.17,0.508
2017-03-19 03:34:00,1753E-3,5C000400,-0724,0838,11965,027.3,045.4,0.222,750.2,01.17,0.508
2017-03-19 03:35:00,1797E-3,5C000400,-0724,0839,12010,027.3,045.4,0.223,750.3,01.17,0.508
2017-03-19 03:36:00,1822E-3,5C000400,-0724,0838,12014,027.2,045.4,0.223,750.2,01.17,0.508
2017-03-19 03:37:00,1819E-3,5C000400,-0724,0838,12112,027.2,045.4,0.223,750.3,01.17,0.508
2017-03-19 03:38:00,1806E-3,5C000400,-0724,0838,12113,027.2,045.4,0.223,750.0,01.17,0.508
2017-03-19 03:39:00,1887E-3,5C000400,-0724,0838,12001,027.2,045.4,0.223,750.4,01.17,0.508
2017-03-19 03:40:00,1759E-3,5C000400,-0724,0838,12088,027.2,045.4,0.223,750.2,01.17,0.508
2017-03-19 03:41:00,1724E-3,5C000400,-0724,0838,12085,027.2,045.4,0.223,750.3,01.17,0.508
2017-03-19 03:42:00,1647E-3,5C000400,-0724,0838,12073,027.2,045.4,0.223,750.2,01.17,0.508
2017-03-19 03:43:00,1769E-3,5C000400,-0724,0839,11882,027.2,045.4,0.223,750.4,01.17,0.508
2017-03-19 03:44:00,1873E-3,5C000400,-0724,0838,12069,027.1,045.4,0.223,750.4,01.17,0.508
2017-03-19 03:45:00,1686E-3,5C000400,-0724,0839,12028,027.1,045.4,0.223,750.3,01.17,0.508
2017-03-19 03:46:00,1868E-3,5C000400,-0724,0839,12083,027.2,045.4,0.223,750.4,01.17,0.508
2017-03-19 03:47:00,1817E-3,5C000400,-0724,0838,12043,027.2,045.4,0.223,750.4,01.17,0.508
2017-03-19 03:48:00,1728E-3,5C000400,-0724,0838,12047,027.1,045.4,0.223,750.5,01.17,0.508
2017-03-19 03:49:00,1793E-3,5C000400,-0724,0838,12088,027.1,045.4,0.223,750.5,01.17,0.508
2017-03-19 03:50:00,1736E-3,5C000400,-0724,0838,12036,027.1,045.4,0.223,750.4,01.17,0.508
2017-03-19 03:51:00,1762E-3,5C000400,-0724,0839,12028,027.1,045.4,0.223,750.5,01.17,0.508
2017-03-19 03:52:00,1667E-3,5C000400,-0724,0840,11986,027.1,045.4,0.223,750.5,01.17,0.508
2017-03-19 03:53:00,1806E-3,5C000400,-0724,0838,12121,027.1,045.4,0.223,750.5,01.17,0.508
2017-03-19 03:54:00,1821E-3,5C000400,-0724,0838,12058,027.1,045.4,0.223,750.5,01.17,0.508
2017-03-19 03:55:00,1835E-3,5C000400,-0724,0839,11882,027.1,045.4,0.223,750.6,01.17,0.508
2017-03-19 03:56:00,1784E-3,5C000400,-0724,0839,11916,027.1,045.4,0.223,750.5,01.17,0.508
2017-03-19 03:57:00,1785E-3,5C000400,-0724,0837,12058,027.0,045.4,0.223,750.6,01.17,0.508
2017-03-19 03:58:00,1694E-3,5C000400,-0724,0838,11962,027.1,045.4,0.223,750.7,01.17,0.508
2017-03-19 03:59:00,1987E-3,5C000400,-0724,0838,12049,027.0,045.4,0.223,750.6,01.17,0.508
2017-03-19 04:00:00,1887E-3,5C000400,-0724,0838,11987,027.0,045.4,0.223,750.6,01.17,0.508
2017-03-19 04:01:00,1918E-3,5C000400,-0724,0839,12093,027.0,045.4,0.223,750.6,01.17,0.508
2017-03-19 04:02:00,1716E-3,5C000400,-0724,0838,12103,027.0,045.4,0.223,750.5,01.17,0.508
2017-03-19 04:03:00,1676E-3,5C000400,-0724,0838,12024,027.0,045.4,0.224,750.4,01.17,0.508
2017-03-19 04:04:00,1684E-3,5C000400,-0724,0838,12086,027.0,045.4,0.224,750.5,01.17,0.508
2017-03-19 04:05:00,1707E-3,5C000400,-0724,0839,12120,027.0,045.4,0.223,750.5,01.17,0.508
2017-03-19 04:06:00,1880E-3,5C000400,-0724,0838,11924,027.0,045.4,0.223,750.5,01.17,0.508
2017-03-19 04:07:00,1776E-3,5C000400,-0724,0839,12037,027.0,045.4,0.224,750.6,01.17,0.508
2017-03-19 04:08:00,1774E-3,5C000400,-0724,0839,11997,027.0,045.4,0.224,750.5,01.17,0.508
2017-03-19 04:09:00,1779E-3,5C000400,-0724,0839,12049,027.0,045.4,0.224,750.4,01.17,0.508
2017-03-19 04:10:00,1702E-3,5C000400,-0724,0838,12119,027.0,045.4,0.223,750.5,01.17,0.508
2017-03-19 04:11:00,1727E-3,5C000400,-0724,0838,11981,027.0,045.4,0.223,750.5,01.17,0.508
2017-03-19 04:12:00,1665E-3,5C000400,-0724,0838,12037,027.0,045.4,0.224,750.4,01.17,0.508
2017-03-19 04:13:00,1810E-3,5C000400,-0724,0838,12025,027.0,045.4,0.224,750.5,01.17,0.508
2017-03-19 04:14:00,1798E-3,5C000400,-0724,0839,12002,027.0,045.4,0.223,750.6,01.17,0.508
2017-03-19 04:15:00,1811E-3,5C000400,-0724,0839,12144,027.0,045.4,0.223,750.4,01.17,0.508
2017-03-19 04:16:00,1726E-3,5C000400,-0724,0838,12086,027.0,045.4,0.223,750.5,01.17,0.508
2017-03-19 04:17:00,1743E-3,5C000400,-0724,0838,12061,027.0,045.4,0.224,750.5,01.17,0.508
2017-03-19 04:18:00,1777E-3,5C000400,-0724,0838,11952,027.0,045.5,0.224,750.4,01.17,0.508
2017-03-19 04:19:00,1717E-3,5C000400,-0724,0838,12034,027.0,045.4,0.224,750.5,01.17,0.508
2017-03-19 04:20:00,1862E-3,5C000400,-0724,0838,11972,027.0,045.4,0.223,750.6,01.17,0.508